CW4352 Weather Reports


Display with metric or nautical units.
time (UTC)temp
F
wind
direction
speed
MPH
gust
MPH
rain 1hr
in
rain 24hr
in
rain mn
in
humidity
%
barometer
mb
20260504060205 59 9 0.0 2.0 0.00 0.00 0.00 56 1011.8
20260504044205 55 9 1.0 3.0 0.00 0.00 0.00 47 1011.2
20260504043705 55 9 1.0 3.0 0.00 0.00 0.00 46 1011.2
20260504043206 55 9 0.0 3.0 0.00 0.00 0.00 46 1011.2
20260504041705 54 9 3.0 6.0 0.00 0.00 0.00 47 1011.2
20260504041205 54 10 2.0 5.0 0.00 0.00 0.00 49 1011.2
20260504040205 53 17 2.0 5.0 0.00 0.00 0.00 51 1011.2
20260504031205 53 19 0.0 0.0 0.00 0.00 0.00 59 1011.6
20260504030205 53 19 0.0 2.0 0.00 0.00 0.00 56 1011.6
20260504024705 53 19 0.0 2.0 0.00 0.00 0.00 57 1011.6
20260504023205 53 19 0.0 2.0 0.00 0.00 0.00 55 1011.6
20260504021705 53 19 0.0 2.0 0.00 0.00 0.00 56 1011.6
20260504021205 53 19 0.0 0.0 0.00 0.00 0.00 57 1011.6
20260504014705 54 19 1.0 3.0 0.00 0.00 0.00 62 1011.6
20260504014205 54 19 1.0 3.0 0.00 0.00 0.00 62 1011.6
20260504013205 55 19 0.0 3.0 0.00 0.00 0.00 61 1011.7
20260504011704 56 19 0.0 2.0 0.00 0.00 0.00 58 1011.7
20260504011205 57 19 0.0 1.0 0.00 0.00 0.00 57 1011.7
20260504010705 57 19 0.0 0.0 0.00 0.00 0.00 57 1011.7
20260504004205 59 19 0.0 0.0 0.00 0.00 0.00 50 1011.7
20260504003705 59 19 0.0 0.0 0.00 0.00 0.00 50 1011.7
20260504000205 60 19 0.0 3.0 0.00 0.00 0.00 48 1011.9
20260503234704 61 19 0.0 2.0 0.00 0.00 0.00 48 1011.9
20260503234205 61 19 0.0 0.0 0.00 0.00 0.00 47 1012.1
20260503231705 61 19 0.0 2.0 0.00 0.00 0.00 49 1012.1
20260503231204 61 19 0.0 2.0 0.00 0.00 0.00 49 1012.1
20260503230706 61 19 0.0 2.0 0.00 0.00 0.00 49 1012.1
20260503224204 61 19 1.0 3.0 0.00 0.00 0.00 50 1012.1
20260503223704 61 19 0.0 0.0 0.00 0.00 0.00 51 1012.1
20260503223205 61 19 0.0 1.0 0.00 0.00 0.00 51 1012.1
20260503221705 61 19 0.0 1.0 0.00 0.00 0.00 51 1012.1
20260503220706 61 19 0.0 2.0 0.00 0.00 0.00 52 1012.0
20260503220205 62 19 0.0 2.0 0.00 0.00 0.00 52 1012.0
20260503214204 61 19 1.0 3.0 0.00 0.00 0.00 53 1011.7
20260503213705 61 19 1.0 3.0 0.00 0.00 0.00 53 1011.7
20260503211204 62 19 2.0 3.0 0.00 0.00 0.00 55 1011.6
20260503204204 63 19 0.0 3.0 0.00 0.00 0.00 52 1011.6
20260503203704 63 19 1.0 2.0 0.00 0.00 0.00 53 1011.6
20260503203205 62 19 1.0 3.0 0.00 0.00 0.00 53 1011.6
20260503201705 62 19 1.0 3.0 0.00 0.00 0.00 53 1011.6
20260503194704 63 19 0.0 0.0 0.00 0.00 0.00 50 1011.4
20260503194205 63 19 0.0 0.0 0.00 0.00 0.00 50 1011.4
20260503191705 64 19 0.0 2.0 0.00 0.00 0.00 48 1011.1
20260503191204 64 19 0.0 2.0 0.00 0.00 0.00 47 1011.1
20260503190705 64 19 0.0 0.0 0.00 0.00 0.00 47 1011.1
20260503184704 65 19 0.0 0.0 0.00 0.00 0.00 47 1010.9
20260503184205 66 19 0.0 0.0 0.00 0.00 0.00 48 1010.9
20260503183204 67 19 0.0 0.0 0.00 0.00 0.00 47 1010.9
20260503180705 69 19 0.0 0.0 0.00 0.00 0.00 43 1010.6
20260503180204 69 19 0.0 1.0 0.00 0.00 0.00 43 1010.6
20260503174205 72 19 0.0 0.0 0.00 0.00 0.00 46 1010.6
20260503173204 73 19 0.0 1.0 0.00 0.00 0.00 40 1011.0
20260503171704 74 19 1.0 2.0 0.00 0.00 0.00 37 1011.0
20260503171204 74 19 0.0 0.0 0.00 0.00 0.00 41 1011.0
20260503150205 76 355 2.0 3.0 0.00 0.00 0.00 32 1011.5
20260503140204 76 327 2.0 6.0 0.00 0.00 0.00 34 1012.2
20260503130204 75 17 3.0 5.0 0.00 0.00 0.00 35 1012.3
20260503110704 73 26 2.0 5.0 0.00 0.00 0.00 38 1013.0
20260503090204 73 9 2.0 5.0 0.00 0.00 0.00 45 1013.6
20260503081203 73 296 1.0 3.0 0.00 0.00 0.00 41 1013.6
20260503080704 72 296 1.0 3.0 0.00 0.00 0.00 36 1013.6
20260503080204 72 296 1.0 3.0 0.00 0.00 0.00 40 1013.6